Voltar ao catálogo

DELTA 1 DEB

AtivoUNKNOWN
NORAD 2700·DEBRIS·🇺🇸 United States

Lançado Nov 6, 1965 de Cape Canaveral Space Force Station

Loading…

Próximas Passagens (próximas 24 horas)

TLE

AtualizadoSource: Space-Track

Época: Sep 13, 2026, 13:33 UTC

1  2700U 65089C   26256.56489287 -.00000297  00000-0 -10984-2 0  9991
2  2700  59.5934  93.4362 0722054 133.4984 267.2956 12.08992101722141

Acompanhe DELTA 1 DEB em tempo real com AllMySat

Download on the App Store